This is the latest recevied weather packets stored in our database for station/object vk4zu-13. If no packets are shown the sender has not sent any weather packets the latest 10 day(s).
| Time | Temp. | Humidity | Pressure | Rain* | Wind** | Luminosity | Snow |
|---|---|---|---|---|---|---|---|
| 1777608284 | 24.44° C | 66% | 1022.3 hPa | 0 mm | - | 88 W/m² | - |
| 1777608215 | 24.44° C | 65% | 1022.3 hPa | 0 mm | - | 100 W/m² | - |
| 1777608147 | 25° C | 66% | 1022.5 hPa | 0 mm | - | 118 W/m² | - |
| 1777608079 | 25° C | 64% | 1022.3 hPa | 0 mm | - | 137 W/m² | - |
| 1777608010 | 25° C | 65% | 1022.3 hPa | 0 mm | - | 137 W/m² | - |
| 1777607951 | 25° C | 65% | 1022.4 hPa | 0 mm | - | 160 W/m² | - |
| 1777607888 | 25° C | 64% | 1022.4 hPa | 0 mm | - | 193 W/m² | - |
| 1777607819 | 25° C | 65% | 1022.3 hPa | 0 mm | - | 181 W/m² | - |
| 1777607758 | 25° C | 65% | 1022.4 hPa | 0 mm | - | 181 W/m² | - |
| 1777607697 | 25° C | 64% | 1022.5 hPa | 0 mm | - | 137 W/m² | - |
| 1777607626 | 25° C | 64% | 1022.4 hPa | 0 mm | - | 134 W/m² | - |
| 1777607556 | 25° C | 64% | 1022.4 hPa | 0 mm | - | 130 W/m² | - |
| 1777607487 | 25.56° C | 63% | 1022.5 hPa | 0 mm | - | 128 W/m² | - |
| 1777607416 | 25.56° C | 63% | 1022.5 hPa | 0 mm | - | 174 W/m² | - |
| 1777607348 | 25.56° C | 63% | 1022.4 hPa | 0 mm | - | 192 W/m² | - |
| 1777607277 | 25.56° C | 62% | 1022.4 hPa | 0 mm | - | 237 W/m² | - |
| 1777607207 | 25.56° C | 61% | 1022.4 hPa | 0 mm | - | 156 W/m² | - |
| 1777607141 | 26.11° C | 60% | 1022.4 hPa | 0 mm | - | 165 W/m² | - |
| 1777607066 | 26.11° C | 62% | 1022.6 hPa | 0 mm | - | 165 W/m² | - |
| 1777606997 | 26.11° C | 59% | 1022.7 hPa | 0 mm | - | 165 W/m² | - |
| 1777606929 | 26.11° C | 60% | 1022.6 hPa | 0 mm | - | 698 W/m² | - |
| 1777606856 | 26.11° C | 61% | 1022.5 hPa | 0 mm | - | 631 W/m² | - |
| 1777606793 | 26.11° C | 60% | 1022.7 hPa | 0 mm | - | 631 W/m² | - |
| 1777606736 | 26.11° C | 60% | 1022.7 hPa | 0 mm | - | 654 W/m² | - |
| 1777606670 | 26.11° C | 62% | 1022.6 hPa | 0 mm | - | 642 W/m² | - |
* Rain latest hour (hover to see other rain measurements)
** Current wind speed in m/s (hover to see current wind gust speed)